カタログに戻る

NANOFF B

運用中科学SSO
NORAD 58755·PAYLOAD·🇩🇪 Germany

打ち上げ Dec 1, 2023 から Vandenberg Space Force Base

Loading…

次のパス (今後24時間)

TLE

最新Source: Space-Track

元期: Sep 14, 2026, 15:10 UTC

1 58755U 23185S   26257.63199721  .00002271  00000-0  13297-3 0  9996
2 58755  97.5178 323.8355 0012172   4.7983 355.3362 15.12779688147397

AllMySatでNANOFF Bをリアルタイム追跡

Download on the App Store